When you browse on this site, cookies collect data to enhance your experience and personalize the content and advertising you see.
Visit our Privacy Policy to learn more. By continuing to use the site, you agree to this use of cookies and data.

Meteo pe oră la Dzierslawice

Astăzi, 19 Septembrie, Sâmbătă

Timp Temperatura Precipitaţii Vânt Presiune Umiditate
00:00 +12°C° 0 mm 1 m/s 768 mmHg 59%
01:00 +11°C° 0 mm 1 m/s 768 mmHg 61%
02:00 +11°C° 0 mm 1 m/s 768 mmHg 62%
03:00 +11°C° 0 mm 1 m/s 767 mmHg 63%
04:00 +11°C° 0 mm 1 m/s 767 mmHg 64%
05:00 +11°C° 0 mm 1 m/s 767 mmHg 63%
06:00 +12°C° 0 mm 1 m/s 767 mmHg 63%
07:00 +12°C° 0 mm 1 m/s 767 mmHg 61%
08:00 +14°C° 0 mm 1 m/s 767 mmHg 55%
09:00 +16°C° 0 mm 1 m/s 767 mmHg 49%
10:00 +19°C° 0 mm 1 m/s 767 mmHg 43%
11:00 +19°C° 0 mm 2 m/s 767 mmHg 40%
12:00 +20°C° 0 mm 2 m/s 766 mmHg 37%
13:00 +21°C° 0 mm 2 m/s 766 mmHg 34%
14:00 +21°C° 0 mm 2 m/s 766 mmHg 35%
15:00 +21°C° 0 mm 2 m/s 765 mmHg 37%
16:00 +20°C° 0 mm 2 m/s 765 mmHg 38%
17:00 +19°C° 0 mm 2 m/s 765 mmHg 43%
18:00 +17°C° 0 mm 2 m/s 764 mmHg 47%
19:00 +15°C° 0 mm 2 m/s 764 mmHg 52%
20:00 +15°C° 0 mm 2 m/s 764 mmHg 53%
21:00 +14°C° 0 mm 2 m/s 765 mmHg 54%
22:00 +13°C° 0 mm 2 m/s 765 mmHg 56%
23:00 +13°C° 0 mm 2 m/s 765 mmHg 56%

Mâine, 20 Septembrie, Duminică

Timp Temperatura Precipitaţii Vânt Presiune Umiditate
00:00 +13°C° 0 mm 2 m/s 765 mmHg 57%
01:00 +13°C° 0 mm 2 m/s 764 mmHg 57%
02:00 +12°C° 0 mm 2 m/s 764 mmHg 58%
03:00 +12°C° 0 mm 2 m/s 764 mmHg 58%
04:00 +12°C° 0 mm 2 m/s 764 mmHg 59%
05:00 +12°C° 0 mm 2 m/s 764 mmHg 59%
06:00 +11°C° 0 mm 3 m/s 764 mmHg 60%
07:00 +11°C° 0 mm 3 m/s 764 mmHg 60%
08:00 +13°C° 0 mm 3 m/s 764 mmHg 55%
09:00 +16°C° 0 mm 3 m/s 764 mmHg 50%
10:00 +18°C° 0 mm 3 m/s 763 mmHg 45%
11:00 +20°C° 0 mm 3 m/s 763 mmHg 42%
12:00 +21°C° 0 mm 3 m/s 763 mmHg 39%
13:00 +22°C° 0 mm 4 m/s 763 mmHg 36%
14:00 +22°C° 0 mm 3 m/s 763 mmHg 37%
15:00 +22°C° 0 mm 3 m/s 762 mmHg 39%
16:00 +21°C° 0 mm 3 m/s 762 mmHg 40%
17:00 +20°C° 0 mm 3 m/s 762 mmHg 46%
18:00 +18°C° 0 mm 3 m/s 762 mmHg 52%
19:00 +16°C° 0 mm 2 m/s 762 mmHg 57%
20:00 +15°C° 0 mm 2 m/s 762 mmHg 59%
21:00 +14°C° 0 mm 2 m/s 762 mmHg 61%
22:00 +14°C° 0 mm 2 m/s 763 mmHg 63%
23:00 +13°C° 0 mm 2 m/s 762 mmHg 64%

Poimâine, 21 Septembrie, Luni

Timp Temperatura Precipitaţii Vânt Presiune Umiditate
00:00 +13°C° 0 mm 2 m/s 762 mmHg 66%
01:00 +12°C° 0 mm 2 m/s 762 mmHg 68%
02:00 +12°C° 0 mm 2 m/s 762 mmHg 69%
03:00 +12°C° 0 mm 2 m/s 762 mmHg 71%
04:00 +10°C° 0 mm 2 m/s 761 mmHg 73%
05:00 +12°C° 0 mm 2 m/s 761 mmHg 73%
06:00 +12°C° 0 mm 2 m/s 761 mmHg 73%
07:00 +12°C° 0 mm 2 m/s 761 mmHg 73%
08:00 +15°C° 0 mm 2 m/s 761 mmHg 66%
09:00 +17°C° 0 mm 2 m/s 761 mmHg 59%
10:00 +19°C° 0 mm 2 m/s 761 mmHg 53%
11:00 +21°C° 0 mm 2 m/s 761 mmHg 49%
12:00 +23°C° 0 mm 2 m/s 761 mmHg 44%
13:00 +25°C° 0 mm 2 m/s 760 mmHg 40%
14:00 +25°C° 0 mm 1 m/s 760 mmHg 40%
15:00 +25°C° 0 mm 1 m/s 760 mmHg 41%
16:00 +25°C° 0 mm 1 m/s 759 mmHg 41%
17:00 +23°C° 0 mm 1 m/s 759 mmHg 47%
18:00 +21°C° 0 mm 1 m/s 759 mmHg 52%
19:00 +19°C° 0 mm 1 m/s 759 mmHg 58%
20:00 +19°C° 0 mm 1 m/s 759 mmHg 61%
21:00 +18°C° 0 mm 1 m/s 759 mmHg 63%
22:00 +18°C° 0 mm 1 m/s 759 mmHg 66%
23:00 +16°C° 0 mm 1 m/s 759 mmHg 68%

22 Septembrie, Marţi

Timp Temperatura Precipitaţii Vânt Presiune Umiditate
00:00 +16°C° 0 mm 1 m/s 759 mmHg 69%
01:00 +16°C° 0 mm 1 m/s 758 mmHg 71%
02:00 +15°C° 0 mm 1 m/s 758 mmHg 73%
03:00 +15°C° 0 mm 1 m/s 758 mmHg 74%
04:00 +15°C° 0 mm 1 m/s 758 mmHg 76%
05:00 +15°C° 0 mm 1 m/s 758 mmHg 76%
06:00 +15°C° 0 mm 1 m/s 758 mmHg 75%
07:00 +16°C° 0 mm 1 m/s 758 mmHg 75%
08:00 +19°C° 0 mm 1 m/s 757 mmHg 68%
09:00 +20°C° 0 mm 2 m/s 757 mmHg 60%
10:00 +23°C° 0 mm 2 m/s 757 mmHg 53%
11:00 +24°C° 0 mm 2 m/s 756 mmHg 49%
12:00 +26°C° 0 mm 2 m/s 756 mmHg 45%
13:00 +27°C° 0 mm 2 m/s 756 mmHg 41%
14:00 +27°C° 0 mm 2 m/s 755 mmHg 42%
15:00 +27°C° 0 mm 2 m/s 755 mmHg 42%
16:00 +27°C° 0 mm 2 m/s 754 mmHg 43%
17:00 +25°C° 0 mm 2 m/s 754 mmHg 49%
18:00 +23°C° 0 mm 2 m/s 754 mmHg 54%
19:00 +21°C° 0 mm 1 m/s 754 mmHg 60%
20:00 +20°C° 0 mm 2 m/s 754 mmHg 62%
21:00 +19°C° 0 mm 2 m/s 754 mmHg 65%
22:00 +19°C° 0 mm 2 m/s 753 mmHg 68%
23:00 +18°C° 0 mm 2 m/s 753 mmHg 70%

23 Septembrie, Miercuri

Timp Temperatura Precipitaţii Vânt Presiune Umiditate
00:00 +18°C° 0 mm 2 m/s 753 mmHg 72%
01:00 +17°C° 0 mm 2 m/s 753 mmHg 74%
02:00 +18°C° 0 mm 1 m/s 753 mmHg 76%
03:00 +18°C° 0 mm 1 m/s 752 mmHg 78%
04:00 +18°C° 0 mm 1 m/s 752 mmHg 79%
05:00 +18°C° 0 mm 1 m/s 752 mmHg 79%
06:00 +18°C° 0 mm 1 m/s 752 mmHg 79%
07:00 +18°C° 0 mm 1 m/s 752 mmHg 79%
08:00 +19°C° 0 mm 2 m/s 752 mmHg 71%
09:00 +21°C° 0 mm 2 m/s 751 mmHg 64%
10:00 +24°C° 0 mm 2 m/s 751 mmHg 56%
11:00 +25°C° 0 mm 2 m/s 751 mmHg 53%
12:00 +26°C° 0 mm 3 m/s 751 mmHg 49%
13:00 +27°C° 0 mm 3 m/s 750 mmHg 46%
14:00 +27°C° 0 mm 3 m/s 750 mmHg 45%
15:00 +27°C° 0 mm 3 m/s 750 mmHg 45%
16:00 +26°C° 0 mm 3 m/s 750 mmHg 44%
17:00 +25°C° 0 mm 2 m/s 750 mmHg 48%
18:00 +23°C° 0 mm 2 m/s 750 mmHg 51%
19:00 +20°C° 0 mm 2 m/s 750 mmHg 55%
20:00 +19°C° 0 mm 2 m/s 750 mmHg 57%
21:00 +19°C° 0 mm 2 m/s 750 mmHg 59%
22:00 +18°C° 0 mm 2 m/s 750 mmHg 62%
23:00 +18°C° 0 mm 3 m/s 750 mmHg 64%

24 Septembrie, Joi

Timp Temperatura Precipitaţii Vânt Presiune Umiditate
00:00 +18°C° 0 mm 3 m/s 750 mmHg 65%
01:00 +18°C° 0 mm 3 m/s 750 mmHg 67%
02:00 +17°C° 0 mm 3 m/s 750 mmHg 71%
03:00 +17°C° 0 mm 3 m/s 750 mmHg 74%
04:00 +17°C° 0 mm 3 m/s 750 mmHg 78%
05:00 +17°C° 0 mm 3 m/s 751 mmHg 80%
06:00 +17°C° 0 mm 3 m/s 751 mmHg 82%
07:00 +17°C° 0 mm 3 m/s 751 mmHg 84%
08:00 +18°C° 0 mm 3 m/s 751 mmHg 77%
09:00 +20°C° 0 mm 3 m/s 752 mmHg 71%
10:00 +21°C° 0 mm 2 m/s 752 mmHg 64%
11:00 +22°C° 0 mm 3 m/s 751 mmHg 59%
12:00 +24°C° 0 mm 3 m/s 751 mmHg 54%
13:00 +25°C° 0 mm 3 m/s 751 mmHg 49%
14:00 +25°C° 0 mm 3 m/s 751 mmHg 49%
15:00 +25°C° 0 mm 3 m/s 750 mmHg 49%
16:00 +25°C° 0 mm 3 m/s 750 mmHg 49%
17:00 +24°C° 0 mm 3 m/s 749 mmHg 55%
18:00 +21°C° 0 mm 3 m/s 749 mmHg 61%
19:00 +20°C° 0 mm 3 m/s 749 mmHg 66%
20:00 +19°C° 0 mm 3 m/s 749 mmHg 69%
21:00 +19°C° 0 mm 3 m/s 748 mmHg 71%
22:00 +19°C° 0 mm 3 m/s 748 mmHg 73%
23:00 +18°C° 0 mm 3 m/s 748 mmHg 74%
Arată mai mult